Wind_Speed
9 9 8 8 9 8 7 7 7 6 6 5 5 6 5 5 6 7 7 6 6 6 6 6 6 7 7 7 7 7 7 7 7 8 8 9 9 10 11 12 13 13 13 13 13 13 13 13 13
10 9 10 10 10 9 8 8 8 8 7 6 6 6 6 6 6 7 7 7 6 6 6 6 6 7 8 8 8 8 8 8 8 9 10 10 11 12 12 13 13 14 14 14 14 14 14 14 14
10 11 11 11 11 10 10 10 9 10 9 8 8 8 7 7 7 8 8 7 7 7 7 7 7 8 8 9 10 10 10 10 10 10 11 12 12 13 13 14 14 14 15 14 15 15 15 15 15
12 12 13 13 12 12 12 12 11 11 11 10 9 9 8 9 9 9 8 8 8 9 8 8 8 8 9 10 11 11 11 11 11 12 12 13 14 14 14 15 15 15 15 15 15 16 17 17 16
13 13 13 13 13 13 13 13 13 13 12 11 10 10 10 10 10 10 9 9 9 9 9 9 9 10 10 11 11 12 12 12 13 14 14 15 15 15 15 16 16 16 16 17 17 18 18 18 18
13 14 14 14 13 14 14 14 14 14 13 12 12 11 11 12 12 11 10 10 10 10 10 11 11 11 12 12 12 12 13 13 14 15 15 15 16 16 17 17 17 17 18 18 19 19 20 19 19
13 13 13 13 13 14 14 14 14 14 12 12 12 12 12 13 13 12 12 11 11 11 11 12 11 12 13 13 13 13 14 14 15 16 16 16 17 17 18 18 19 20 20 20 20 20 20 20 20
12 13 13 12 13 14 14 14 15 15 13 13 13 12 11 12 13 13 13 12 11 12 12 12 13 13 14 15 14 14 15 15 16 16 17 18 18 19 19 20 21 22 22 21 21 21 21 21 21
13 13 13 12 12 13 14 14 14 15 15 14 14 13 13 13 13 14 13 12 13 13 14 14 14 15 15 15 15 15 16 16 17 17 18 19 20 20 21 21 21 22 22 22 23 22 22 23 23
11 12 12 12 12 12 13 13 13 15 15 15 15 15 15 15 14 14 14 13 14 14 14 15 15 15 15 16 16 16 17 17 17 18 19 20 21 21 21 22 22 22 23 23 24 24 24 24 25
10 11 11 11 11 11 13 13 12 14 15 16 15 15 16 16 15 15 15 15 15 14 14 15 16 16 16 17 17 17 17 18 18 18 20 20 21 22 22 22 23 23 24 24 25 26 26 26 26
9 10 10 10 10 11 12 12 11 12 14 15 15 15 16 15 15 15 15 16 15 14 13 14 15 16 16 17 18 18 18 19 19 19 20 21 22 22 23 24 25 25 25 26 27 27 28 29 28
9 9 9 9 9 11 11 12 12 12 14 15 15 15 15 14 15 16 14 15 15 15 15 15 16 17 17 19 20 20 20 19 19 19 20 22 23 23 23 24 24 25 26 27 28 28 28 29 29
8 8 8 8 9 10 10 11 11 12 13 14 14 13 14 14 15 15 15 15 16 16 16 15 16 17 18 19 20 21 21 21 21 21 21 23 23 24 24 25 25 25 26 27 28 28 28 29 29
6 6 7 8 9 10 11 9 10 11 13 13 13 13 13 14 15 15 15 15 16 17 17 16 17 18 19 20 21 21 22 22 22 23 23 23 24 24 25 26 26 26 27 27 28 28 28 29 29
5 6 6 7 8 9 10 10 11 11 12 13 14 14 13 14 15 16 16 16 17 17 17 18 19 19 20 21 21 22 22 23 24 24 25 24 25 25 25 26 27 27 27 27 27 28 29 29 30
5 4 5 6 6 8 9 10 11 12 13 14 14 14 14 15 16 16 16 16 17 17 18 18 19 19 20 20 21 21 21 23 24 25 26 26 26 26 26 26 27 27 27 27 27 28 28 29 30
4 4 4 5 6 7 8 10 11 12 13 13 14 14 14 16 16 16 17 17 17 16 17 18 19 19 19 20 21 21 22 23 24 24 25 26 26 26 26 27 27 27 27 26 27 28 28 28 28
4 4 4 4 6 7 8 9 10 11 12 13 14 15 14 15 15 15 16 16 16 17 18 19 19 18 18 19 20 21 22 23 23 23 24 25 25 26 26 27 27 26 26 26 27 28 27 27 27
4 5 5 6 8 8 8 9 10 11 13 14 15 14 14 14 15 15 16 17 17 18 18 18 18 18 18 19 20 21 22 22 22 23 23 23 24 24 25 25 25 26 25 25 26 26 25 25 26
5 7 7 8 9 9 10 9 10 12 14 14 13 13 14 15 15 15 15 17 17 17 17 18 18 18 19 20 20 20 20 21 22 22 22 22 22 23 24 24 24 24 24 24 25 25 24 24 24
6 7 8 9 9 10 11 12 11 12 13 13 13 13 14 14 14 15 16 17 17 17 18 19 20 19 20 20 20 19 19 20 21 22 22 22 23 23 23 23 22 22 23 24 23 23 24 24 24
7 8 9 9 10 11 12 14 13 13 12 12 12 12 13 15 16 17 18 18 18 19 20 21 21 20 20 19 19 19 20 21 22 22 22 22 23 23 23 23 22 22 22 22 22 23 23 25 25
8 9 10 10 10 11 13 14 13 13 13 13 13 13 14 15 17 19 20 20 20 20 22 22 22 21 20 20 20 20 20 21 22 22 22 22 23 23 23 23 23 22 22 22 23 24 24 25 25
9 11 11 11 11 12 13 13 14 13 13 14 14 14 16 17 19 19 20 21 21 22 22 22 22 21 21 21 21 20 20 21 22 22 22 22 23 23 23 24 24 24 24 24 24 24 25 24 25
11 12 12 13 14 13 12 13 14 14 14 15 15 15 16 17 18 19 19 20 21 22 22 22 21 21 21 20 20 21 22 22 23 22 22 22 22 23 23 23 24 25 25 25 25 24 25 26 26
12 12 13 14 14 14 13 13 13 14 14 15 16 16 18 18 18 19 19 20 21 21 21 20 20 20 20 20 21 21 21 21 21 21 21 21 21 22 22 22 23 24 24 24 25 26 26 26 26
13 13 14 14 15 15 14 14 13 14 15 15 16 17 17 18 18 19 19 20 20 20 19 18 19 19 19 19 20 21 22 22 22 21 21 21 22 22 22 21 21 22 23 24 25 26 26 26 25
13 14 14 15 15 16 16 15 14 14 15 16 17 17 17 18 18 19 19 20 19 18 17 18 19 20 20 20 20 21 21 21 21 21 21 21 22 22 22 21 21 22 24 24 25 25 25 25 25
14 15 15 15 15 16 16 15 15 16 17 17 18 18 18 18 19 19 20 20 18 18 18 18 19 19 20 20 20 20 20 21 21 20 21 21 21 21 21 22 22 23 24 24 24 24 25 25 25
Wind_Direction
239 240 243 246 246 246 238 245 259 268 268 281 295 296 301 302 316 317 318 319 322 327 332 323 317 309 306 307 307 310 310 313 314 314 310 310 311 310 310 308 307 303 299 295 292 291 290 288 288
242 244 245 247 248 249 248 248 256 264 263 268 283 288 293 298 302 309 310 308 307 317 321 314 312 312 309 306 310 310 309 308 305 305 306 305 306 306 306 306 304 302 300 295 291 288 286 286 285
243 245 247 249 250 252 253 252 257 262 263 265 276 283 292 297 300 304 305 308 307 306 304 301 301 309 313 312 310 306 306 305 301 299 302 300 301 302 301 302 301 299 298 296 293 289 285 284 283
245 246 249 250 250 251 250 254 255 256 261 266 273 281 288 295 296 300 302 301 301 299 295 296 295 303 310 307 307 309 305 299 296 296 298 298 299 300 299 298 299 298 296 295 294 291 288 285 281
245 247 249 252 251 248 247 251 252 255 260 263 269 278 285 292 295 295 300 302 297 298 300 303 302 301 301 301 300 303 301 298 296 295 295 295 296 296 298 297 297 299 296 294 293 293 289 285 283
245 248 249 250 251 249 250 251 252 256 259 262 269 277 282 285 289 292 295 294 291 292 297 298 296 297 298 299 297 299 298 296 297 295 293 293 293 293 295 295 294 296 294 293 291 291 290 286 283
245 247 250 251 253 251 252 252 253 253 255 261 267 276 282 285 288 291 293 293 288 287 293 291 293 294 294 296 294 295 294 293 295 295 294 293 292 291 291 292 292 292 291 290 289 289 290 288 284
246 248 250 252 254 252 255 256 257 253 256 261 267 272 279 284 288 291 293 291 287 285 288 288 290 293 293 292 291 289 289 290 292 292 292 292 290 290 290 289 290 290 289 287 285 285 287 287 285
249 249 251 253 250 254 256 255 256 257 261 265 271 276 278 283 290 294 290 290 288 286 288 289 289 291 293 289 288 286 287 288 289 288 288 289 288 288 289 288 288 288 288 287 284 284 284 284 283
252 256 258 258 255 256 257 256 258 263 265 269 274 278 282 289 292 294 294 294 293 288 288 288 288 288 289 288 285 285 286 287 289 289 287 288 286 288 290 288 287 287 288 286 284 284 283 283 283
251 256 259 259 259 259 257 257 261 266 271 274 277 280 286 291 293 291 292 294 293 288 284 286 285 285 287 288 288 287 287 288 288 289 289 287 287 288 288 287 286 287 286 284 283 282 282 282 283
247 252 256 257 259 262 258 258 260 267 271 276 278 281 287 292 294 291 290 293 290 286 285 285 284 285 286 287 290 291 292 287 286 287 287 287 287 288 289 289 287 285 284 283 283 282 280 281 280
246 249 256 260 264 261 263 257 260 265 273 281 282 283 289 293 294 293 292 290 289 290 290 285 284 287 288 289 289 292 290 288 290 290 290 289 288 288 289 291 287 284 284 283 284 283 281 280 280
246 248 251 256 262 263 266 260 259 267 275 281 283 286 290 291 294 296 296 293 290 289 289 285 283 283 285 287 287 289 291 291 292 290 291 290 291 290 291 292 290 285 285 286 286 284 282 282 281
247 257 258 257 264 264 267 267 265 270 274 278 280 284 290 295 298 298 296 296 295 293 290 286 285 286 288 288 286 287 292 293 292 291 292 292 291 291 292 292 289 286 286 287 286 284 284 282 282
253 261 264 261 274 273 268 268 264 270 277 279 281 284 290 296 297 296 295 293 294 292 291 289 290 289 288 289 289 288 289 291 293 294 294 294 293 293 293 292 289 287 286 286 286 286 284 283 281
258 267 267 267 271 274 272 269 267 270 277 281 285 288 291 297 298 296 296 293 295 291 293 294 295 292 289 289 290 289 288 289 292 295 295 295 293 293 293 292 291 289 287 286 286 286 286 284 283
268 273 274 280 280 280 283 275 269 273 279 283 287 292 295 297 300 299 297 296 297 295 298 299 298 295 294 294 291 289 288 290 293 295 297 295 293 292 294 293 292 289 287 286 285 285 286 286 285
280 286 289 289 287 290 291 284 278 283 286 290 293 297 296 298 299 298 299 300 301 300 300 301 300 297 296 297 296 293 294 294 295 296 297 297 294 294 294 293 292 290 289 289 288 286 287 288 286
293 305 303 294 291 295 297 296 292 293 298 303 301 300 298 296 297 299 303 305 303 301 301 303 303 300 298 298 297 298 298 297 297 298 299 298 296 297 297 296 296 293 291 289 289 290 289 290 288
287 299 306 301 298 300 301 303 297 299 301 304 306 305 300 297 299 303 307 307 304 303 302 304 306 305 303 301 300 302 299 299 300 299 299 299 299 298 298 299 299 298 296 293 292 291 290 289 289
297 299 300 298 299 304 305 312 308 307 306 310 311 309 306 302 301 304 304 305 303 301 301 304 306 306 306 305 304 305 304 303 303 303 302 301 300 299 299 300 300 300 298 294 294 293 291 290 289
293 298 296 299 305 307 308 310 314 314 311 312 311 308 306 304 304 307 307 307 306 303 302 304 306 306 306 304 307 308 307 305 305 305 303 300 300 300 301 301 302 300 297 296 296 295 295 294 293
295 298 295 298 304 308 310 310 315 318 316 315 310 308 308 307 305 305 309 309 308 307 308 308 306 305 303 303 304 305 304 304 304 304 303 300 300 301 303 304 304 300 297 297 298 298 298 296 294
298 302 303 305 308 311 312 313 317 317 317 316 314 312 309 308 307 306 307 307 310 309 307 309 309 304 303 303 302 303 304 303 303 303 304 303 302 302 304 305 304 300 298 298 300 298 298 299 297
304 306 307 309 310 312 313 315 317 315 316 315 315 316 315 313 312 310 308 308 310 309 309 309 308 306 305 304 303 303 303 302 303 305 306 305 304 302 304 305 303 302 301 302 301 301 300 299 296
302 308 307 306 308 310 312 314 313 315 313 313 314 315 316 317 318 318 315 314 314 314 313 311 308 307 305 304 305 307 306 306 309 311 311 310 308 305 305 305 305 304 303 303 302 302 303 301 298
298 305 306 308 311 311 313 317 318 317 313 314 316 317 318 321 322 322 322 319 318 317 316 314 309 308 308 310 311 310 310 310 313 313 312 312 312 311 310 308 306 306 305 302 303 305 304 302 301
295 299 303 305 306 309 311 318 320 319 317 315 315 317 319 322 322 324 324 323 321 319 318 317 315 313 311 311 312 312 312 313 315 315 313 313 313 314 314 310 310 311 310 307 305 306 307 305 303
292 295 298 302 303 305 308 315 318 319 318 317 316 316 320 321 321 322 323 324 322 320 320 318 316 316 314 311 311 312 314 315 316 317 316 315 316 316 315 312 311 312 313 311 308 308 309 309 307
Height
5873 5873 5874 5875 5876 5876 5876 5876 5876 5877 5877 5878 5878 5878 5878 5879 5879 5880 5879 5877 5877 5877 5877 5877 5877 5877 5877 5876 5875 5875 5874 5874 5874 5874 5874 5874 5874 5874 5874 5873 5873 5872 5872 5872 5872 5872 5872 5872 5872
5871 5872 5874 5874 5874 5874 5875 5875 5875 5876 5876 5877 5877 5877 5877 5877 5876 5876 5876 5875 5875 5876 5876 5875 5876 5875 5875 5875 5874 5873 5873 5873 5872 5872 5872 5872 5872 5871 5871 5871 5870 5870 5870 5869 5869 5869 5869 5869 5869
5870 5871 5872 5873 5872 5873 5874 5874 5874 5874 5875 5875 5876 5875 5875 5875 5875 5874 5874 5874 5874 5874 5874 5874 5874 5873 5873 5873 5872 5872 5871 5871 5871 5870 5870 5870 5869 5869 5869 5868 5868 5867 5867 5867 5866 5866 5866 5866 5866
5868 5870 5871 5871 5871 5871 5871 5872 5873 5873 5873 5874 5874 5874 5874 5874 5873 5873 5873 5873 5873 5873 5872 5872 5871 5871 5871 5871 5870 5870 5869 5869 5869 5868 5868 5867 5867 5867 5866 5866 5865 5865 5864 5864 5864 5863 5863 5863 5862
5866 5868 5869 5868 5869 5869 5869 5870 5871 5871 5871 5872 5872 5872 5873 5872 5872 5871 5871 5871 5871 5871 5870 5870 5869 5869 5869 5869 5868 5867 5867 5867 5866 5866 5865 5865 5865 5864 5863 5863 5862 5862 5861 5861 5860 5860 5859 5859 5859
5865 5865 5866 5866 5866 5867 5867 5868 5869 5869 5869 5869 5870 5870 5870 5870 5870 5870 5869 5869 5869 5868 5868 5867 5867 5866 5866 5866 5865 5865 5864 5864 5863 5863 5862 5862 5862 5861 5860 5860 5859 5859 5858 5857 5857 5856 5855 5855 5855
5863 5863 5863 5864 5864 5864 5865 5865 5866 5866 5867 5867 5867 5868 5868 5868 5867 5867 5867 5867 5866 5866 5865 5865 5864 5864 5864 5863 5863 5862 5861 5861 5860 5860 5859 5858 5858 5858 5857 5856 5856 5855 5854 5854 5853 5852 5851 5851 5850
5860 5861 5861 5861 5861 5862 5863 5863 5863 5864 5864 5865 5865 5866 5865 5865 5865 5864 5864 5864 5863 5863 5862 5862 5861 5861 5860 5860 5859 5859 5858 5858 5857 5856 5856 5855 5854 5854 5853 5852 5852 5851 5850 5849 5848 5847 5847 5846 5846
5858 5859 5858 5859 5859 5860 5860 5861 5861 5862 5862 5863 5863 5863 5863 5863 5862 5862 5861 5861 5861 5860 5859 5859 5858 5858 5857 5856 5856 5855 5855 5854 5854 5853 5852 5851 5850 5850 5849 5848 5847 5846 5845 5844 5843 5843 5842 5841 5841
5856 5856 5857 5857 5857 5858 5858 5858 5859 5860 5860 5861 5861 5860 5860 5860 5860 5859 5858 5858 5857 5856 5856 5855 5855 5854 5853 5852 5852 5851 5851 5850 5850 5849 5848 5847 5847 5846 5844 5844 5843 5842 5841 5839 5838 5838 5837 5836 5836
5853 5854 5855 5855 5855 5855 5855 5856 5856 5857 5858 5858 5858 5858 5857 5857 5857 5856 5855 5854 5854 5853 5852 5851 5851 5850 5849 5849 5848 5847 5846 5846 5846 5845 5844 5843 5842 5841 5840 5839 5838 5837 5836 5834 5833 5832 5831 5831 5830
5852 5852 5852 5853 5853 5852 5853 5854 5854 5855 5855 5855 5855 5855 5854 5854 5853 5853 5852 5851 5850 5849 5848 5847 5847 5846 5846 5845 5844 5843 5842 5842 5841 5840 5839 5838 5837 5836 5835 5834 5832 5831 5830 5829 5828 5826 5825 5825 5824
5850 5850 5850 5851 5851 5851 5851 5851 5852 5852 5853 5853 5853 5852 5852 5851 5850 5849 5848 5847 5846 5845 5844 5843 5843 5842 5841 5841 5840 5839 5838 5837 5836 5835 5834 5834 5832 5831 5830 5828 5826 5825 5824 5823 5822 5820 5819 5818 5817
5848 5848 5849 5849 5849 5849 5849 5850 5850 5850 5850 5850 5850 5849 5848 5847 5847 5846 5845 5843 5842 5841 5840 5839 5838 5837 5837 5836 5836 5835 5834 5833 5832 5830 5829 5828 5827 5825 5824 5822 5820 5819 5817 5816 5815 5814 5813 5811 5810
5847 5848 5848 5848 5847 5847 5847 5848 5848 5847 5847 5847 5847 5846 5845 5844 5843 5842 5841 5840 5838 5838 5836 5835 5834 5833 5832 5831 5831 5830 5829 5828 5826 5825 5824 5822 5821 5819 5817 5816 5814 5812 5811 5809 5808 5807 5806 5804 5803
5846 5847 5848 5847 5846 5845 5847 5847 5846 5845 5845 5845 5844 5843 5841 5841 5839 5838 5837 5836 5835 5833 5832 5830 5829 5827 5826 5826 5825 5824 5824 5823 5821 5820 5818 5816 5815 5813 5811 5809 5808 5806 5804 5803 5801 5800 5798 5797 5796
5846 5846 5846 5846 5845 5845 5845 5844 5844 5843 5843 5842 5841 5840 5838 5837 5836 5835 5833 5832 5830 5828 5827 5825 5824 5822 5821 5820 5819 5819 5818 5817 5815 5813 5812 5810 5808 5807 5804 5803 5801 5799 5797 5795 5794 5793 5791 5790 5788
5846 5845 5845 5845 5844 5843 5843 5842 5842 5840 5840 5839 5838 5837 5836 5834 5833 5831 5830 5828 5826 5824 5822 5821 5819 5817 5816 5814 5813 5812 5812 5811 5809 5807 5805 5803 5801 5799 5797 5796 5794 5792 5790 5788 5787 5785 5784 5782 5780
5845 5845 5844 5844 5843 5842 5841 5840 5840 5839 5838 5836 5835 5834 5833 5832 5830 5828 5827 5824 5822 5820 5818 5816 5814 5813 5811 5809 5808 5807 5806 5804 5803 5801 5799 5797 5794 5792 5790 5788 5786 5784 5782 5781 5779 5778 5776 5775 5773
5844 5844 5843 5843 5842 5841 5839 5839 5838 5837 5835 5834 5832 5831 5830 5828 5827 5825 5823 5820 5818 5816 5814 5812 5810 5808 5806 5804 5802 5801 5799 5798 5796 5794 5792 5790 5788 5785 5783 5781 5779 5777 5775 5773 5772 5771 5769 5767 5765
5843 5843 5842 5842 5840 5839 5838 5837 5836 5835 5833 5831 5830 5828 5827 5825 5824 5822 5820 5817 5814 5812 5810 5808 5806 5803 5801 5799 5797 5795 5793 5792 5790 5788 5786 5784 5781 5779 5777 5775 5772 5770 5768 5766 5765 5764 5762 5761 5759
5842 5842 5841 5840 5839 5838 5837 5835 5834 5832 5830 5829 5827 5826 5825 5823 5821 5819 5816 5813 5811 5808 5806 5804 5801 5799 5796 5794 5792 5790 5788 5786 5785 5783 5780 5778 5776 5773 5771 5769 5766 5764 5761 5760 5758 5757 5755 5753 5752
5841 5840 5839 5838 5837 5836 5835 5833 5833 5830 5828 5827 5825 5824 5822 5820 5818 5815 5813 5810 5807 5805 5802 5800 5797 5794 5791 5789 5787 5785 5783 5781 5780 5777 5774 5772 5770 5768 5765 5763 5760 5758 5756 5754 5752 5750 5748 5747 5745
5839 5839 5838 5837 5836 5835 5833 5832 5830 5828 5826 5825 5823 5821 5820 5817 5815 5812 5809 5806 5803 5801 5798 5795 5793 5790 5787 5785 5782 5780 5779 5777 5775 5772 5769 5767 5765 5763 5760 5757 5754 5752 5750 5748 5746 5744 5742 5740 5738
5838 5838 5836 5835 5834 5833 5831 5829 5829 5826 5824 5822 5821 5819 5817 5814 5812 5809 5806 5803 5800 5797 5794 5791 5788 5785 5783 5780 5778 5776 5774 5772 5770 5767 5764 5762 5760 5757 5754 5751 5749 5747 5745 5742 5739 5737 5736 5733 5731
5836 5835 5835 5833 5831 5830 5829 5827 5826 5823 5821 5819 5818 5816 5814 5811 5808 5805 5801 5798 5796 5793 5789 5786 5783 5781 5778 5776 5774 5771 5769 5766 5764 5762 5759 5757 5754 5752 5749 5746 5743 5741 5738 5736 5733 5731 5729 5726 5724
5834 5833 5832 5831 5829 5828 5826 5825 5823 5821 5819 5816 5814 5812 5810 5807 5804 5801 5798 5794 5791 5788 5785 5782 5779 5776 5774 5772 5769 5767 5764 5762 5760 5757 5754 5751 5749 5746 5743 5741 5738 5735 5733 5730 5727 5725 5722 5719 5717
5833 5831 5830 5828 5826 5824 5824 5822 5821 5818 5816 5814 5812 5809 5807 5804 5801 5798 5794 5791 5787 5784 5781 5778 5775 5773 5770 5768 5765 5762 5760 5758 5755 5752 5749 5746 5744 5741 5738 5735 5733 5730 5727 5724 5722 5719 5716 5713 5710
5830 5829 5827 5825 5823 5822 5820 5822 5819 5816 5814 5812 5809 5807 5804 5801 5798 5795 5791 5788 5784 5781 5778 5774 5772 5769 5766 5763 5761 5758 5756 5753 5750 5747 5745 5742 5739 5736 5733 5730 5728 5724 5721 5718 5715 5712 5710 5706 5704
5827 5826 5825 5823 5822 5820 5818 5821 5816 5814 5811 5809 5806 5804 5801 5798 5795 5792 5788 5785 5781 5778 5775 5772 5768 5765 5762 5759 5757 5754 5752 5749 5746 5743 5740 5737 5734 5731 5729 5726 5723 5719 5716 5712 5709 5707 5703 5700 5697